Maxwell AFB, AL

1:30 AM CDT on March 30, 2017 (GMT -0500)
Maxwell Air Force Base

Weather History for KMXF - January, 2013

Change the Weather History Date:

Saturday, January 19, 2013

  Actual Average Record
Temperature  
Mean Temperature 46 °F -  
Max Temperature 60 °F 56 °F 75 °F (2017)
Min Temperature 32 °F 36 °F 21 °F (2003)
Degree Days  
Heating Degree Days 19    
Moisture  
Dew Point 32 °F    
Average Humidity 80    
Maximum Humidity 100    
Minimum Humidity 31    
Precipitation  
Precipitation 0.00 in - - ()
Sea Level Pressure  
Sea Level Pressure 30.39 in    
Wind  
Wind Speed 3 mph (NNE)    
Max Wind Speed 6 mph    
Max Gust Speed -    
Visibility 5 miles    
Events Fog    
Averages and records for this station are not official NWS values.
T = Trace of Precipitation, MM = Missing Value Source: NWS Daily Summary

Daily Weather History Graph

Daily Weather History Graph

Search for Another Location

Airport or City:

Trip Planner

Search our weather history database for the weather conditions in past years. The results will help you decide how hot, cold, wet, or windy it might be!

Date:

Astronomy

Jan. 19, 2013 Rise Set
Actual Time 6:45 AM CST 5:06 PM CST
Civil Twilight 6:19 AM CST 5:33 PM CST
Nautical Twilight 5:49 AM CST 6:03 PM CST
Astronomical Twilight 5:20 AM CST 6:32 PM CST
Moon 11:28 AM CST (1/19) 12:24 AM CST (1/19)
Length of Visible Light 11h 13m
Length of Day
10h 20m
First Quarter, 57% of the Moon is Illuminated
Jan 19
First Quarter
Jan 26
Full
Feb 3
Last Quarter
Feb 10
New
Feb 17
First Quarter

Hourly Weather History & Observations

Time (CST) Temp. Windchill Dew Point Humidity Pressure Visibility Wind Dir Wind Speed Gust Speed Precip Events Conditions
12:55 AM 34.7 °F 31.8 °F 32.7 °F 92% 30.42 in 10.0 mi NW 3.5 mph - N/A   Clear
1:55 AM 32.5 °F - 31.3 °F 95% 30.41 in 9.0 mi Calm Calm - N/A   Clear
2:55 AM 32.5 °F 29.3 °F 31.1 °F 94% 30.41 in 8.0 mi NNW 3.5 mph - N/A   Clear
3:19 AM 32.0 °F 27.5 °F 32.0 °F 100% 30.42 in 0.8 mi NNW 4.6 mph - N/A   Clear
3:22 AM 32.0 °F 27.5 °F 32.0 °F 100% 30.42 in 0.5 mi NNW 4.6 mph - N/A Fog Fog
3:25 AM 32.0 °F 26.4 °F 30.2 °F 93% 30.42 in 0.5 mi North 5.8 mph - N/A Fog Fog
3:31 AM 32.0 °F 27.5 °F 32.0 °F 100% 30.42 in 0.5 mi North 4.6 mph - N/A Fog Fog
3:35 AM 32.0 °F 27.5 °F 32.0 °F 100% 30.42 in 0.5 mi North 4.6 mph - N/A Fog Fog
3:36 AM 33.8 °F 29.6 °F 32.0 °F 93% 30.42 in 0.8 mi North 4.6 mph - N/A   Clear
3:42 AM 33.8 °F 29.6 °F 32.0 °F 93% 30.42 in 3.0 mi North 4.6 mph - N/A   Clear
3:55 AM 33.4 °F 30.4 °F 32.4 °F 96% 30.42 in 8.0 mi North 3.5 mph - N/A   Clear
4:55 AM 35.1 °F 31.0 °F 29.8 °F 81% 30.43 in 5.0 mi NNE 4.6 mph - N/A   Haze
5:32 AM 33.8 °F 29.6 °F 30.2 °F 87% 30.43 in 2.5 mi NNE 4.6 mph - N/A   Haze
5:39 AM 33.8 °F 30.8 °F 30.2 °F 87% 30.43 in 3.0 mi NE 3.5 mph - N/A   Haze
5:55 AM 34.7 °F - 30.7 °F 85% 30.43 in 5.0 mi Calm Calm - N/A   Clear
6:15 AM 33.8 °F - 30.2 °F 87% 30.43 in 2.5 mi Calm Calm - N/A   Clear
6:18 AM 33.8 °F - 30.2 °F 87% 30.43 in 2.5 mi Calm Calm - N/A   Clear
6:30 AM 33.8 °F - 30.2 °F 87% 30.43 in 2.5 mi Calm Calm - N/A   Clear
6:41 AM 33.8 °F - 30.2 °F 87% 30.43 in 3.0 mi Calm Calm - N/A   Clear
6:47 AM 32.0 °F - 30.2 °F 93% 30.43 in 2.5 mi Calm Calm - N/A   Clear
6:55 AM 33.1 °F 30.0 °F 30.7 °F 91% 30.43 in 2.5 mi NE 3.5 mph - N/A   Clear
7:00 AM 33.8 °F - 30.2 °F 87% 30.43 in 3.0 mi Calm Calm - N/A   Clear
7:04 AM 33.8 °F - 30.2 °F 87% 30.43 in 2.5 mi Calm Calm - N/A   Clear
7:09 AM 33.8 °F 30.8 °F 30.2 °F 87% 30.43 in 1.8 mi NE 3.5 mph - N/A   Clear
7:11 AM 33.8 °F 30.8 °F 30.2 °F 87% 30.43 in 1.5 mi NNE 3.5 mph - N/A   Clear
7:23 AM 33.8 °F 29.6 °F 30.2 °F 87% 30.44 in 1.8 mi NE 4.6 mph - N/A   Clear
7:29 AM 33.8 °F 29.6 °F 32.0 °F 93% 30.44 in 2.0 mi NNE 4.6 mph - N/A   Clear
7:31 AM 33.8 °F 29.6 °F 32.0 °F 93% 30.44 in 1.8 mi NNE 4.6 mph - N/A   Clear
7:50 AM 35.6 °F - 33.8 °F 93% 30.44 in 2.0 mi Calm Calm - N/A   Clear
7:55 AM 36.7 °F 34.1 °F 33.3 °F 87% 30.44 in 2.5 mi NE 3.5 mph - N/A   Clear
8:10 AM 37.4 °F 34.9 °F 33.8 °F 87% 30.45 in 2.5 mi NNE 3.5 mph - N/A   Haze
8:55 AM 41.5 °F - 33.6 °F 73% 30.45 in 2.0 mi Calm Calm - N/A   Haze
9:05 AM 42.8 °F - 33.8 °F 70% 30.45 in 1.8 mi Calm Calm - N/A   Haze
9:13 AM 42.8 °F 40.1 °F 33.8 °F 70% 30.45 in 2.0 mi NE 4.6 mph - N/A   Haze
9:55 AM 47.8 °F - 32.0 °F 54% 30.45 in 10.0 mi Calm Calm - N/A   Clear
10:55 AM 53.6 °F - 27.7 °F 37% 30.41 in 10.0 mi Calm Calm - N/A   Clear
11:55 AM 56.8 °F - 26.4 °F 31% 30.36 in 10.0 mi ESE 3.5 mph - N/A   Clear
12:55 PM 59.0 °F - 28.4 °F 31% 30.32 in 10.0 mi Variable 3.5 mph - N/A   Clear
1:55 PM 59.5 °F - 29.7 °F 32% 30.30 in 10.0 mi NNE 4.6 mph - N/A   Clear
2:55 PM 59.9 °F - 30.2 °F 33% 30.28 in 10.0 mi Calm Calm - N/A   Partly Cloudy
3:55 PM 60.3 °F - 31.5 °F 34% 30.27 in 10.0 mi Calm Calm - N/A   Clear
4:55 PM 55.4 °F - 32.7 °F 42% 30.27 in 10.0 mi Calm Calm - N/A   Clear
5:55 PM 49.5 °F - 40.6 °F 72% 30.28 in 10.0 mi Calm Calm - N/A   Clear
6:55 PM 47.3 °F - 39.0 °F 73% 30.28 in 10.0 mi Calm Calm - N/A   Clear
7:55 PM 43.5 °F - 40.5 °F 89% 30.28 in 10.0 mi Calm Calm - N/A   Clear
8:55 PM 42.3 °F - 39.6 °F 90% 30.28 in 10.0 mi Calm Calm - N/A   Clear
9:55 PM 40.5 °F - 37.2 °F 88% 30.27 in 10.0 mi Calm Calm - N/A   Clear
10:55 PM 40.6 °F - 39.6 °F 96% 30.26 in 10.0 mi Calm Calm - N/A   Clear
11:55 PM 38.7 °F - 37.6 °F 96% 30.25 in 8.0 mi Calm Calm - N/A   Clear